EW6228 Weather Reports


time (UTC)temp
C
wind
direction
speed
KPH
gust
KPH
rain 1hr
cm
rain 24hr
cm
rain mn
cm
humidity
%
barometer
mb
20260504110308 16 84 0.0 0.0 0.00 0.00 0.00 100 1014.7
20260504100153 15 79 0.0 0.0 0.00 0.00 0.00 100 1015.0
20260504081949 16 84 0.0 3.2 0.00 0.00 0.00 100 1015.7
20260504081439 16 84 0.0 3.2 0.00 0.00 0.00 100 1015.6
20260504080937 16 78 0.0 3.2 0.00 0.00 0.00 100 1015.7
20260504080432 16 89 0.0 0.0 0.00 0.00 0.00 100 1015.7
20260504070319 16 76 0.0 0.0 0.00 0.00 0.00 100 1016.9
20260504060203 16 102 0.0 1.6 0.00 0.00 0.00 100 1017.5
20260504050557 16 111 0.0 1.6 0.00 0.00 0.00 100 1018.0
20260504045549 16 112 0.0 1.6 0.00 0.00 0.00 100 1018.3
20260504045044 16 112 0.0 0.0 0.00 0.00 0.00 100 1018.3
20260504044532 16 112 0.0 0.0 0.00 0.00 0.00 100 1018.2
20260504044031 16 109 0.0 0.0 0.00 0.00 0.00 100 1018.3
20260504043521 16 115 0.0 0.0 0.00 0.00 0.00 100 1018.3
20260504043014 16 115 0.0 1.6 0.00 0.00 0.00 100 1018.3
20260504042744 16 115 0.0 3.2 0.00 0.00 0.00 100 1018.3
20260504042239 16 124 0.0 3.2 0.00 0.00 0.00 100 1018.3
20260504041501 16 103 0.0 1.6 0.00 0.00 0.00 100 1018.3
20260504040949 16 102 0.0 1.6 0.00 0.00 0.00 100 1018.4
20260504035939 16 102 0.0 3.2 0.00 0.00 0.00 100 1018.3
20260504035433 16 107 0.0 0.0 0.00 0.00 0.00 100 1018.3
20260504034931 16 107 0.0 0.0 0.00 0.00 0.00 100 1018.3
20260504034431 16 89 0.0 0.0 0.00 0.00 0.00 100 1018.2
20260504033932 16 85 0.0 1.6 0.00 0.00 0.00 100 1018.3
20260504033702 17 85 0.0 1.6 0.00 0.00 0.00 100 1018.4
20260504032932 17 88 0.0 1.6 0.00 0.00 0.00 100 1018.3
20260504032432 17 88 0.0 0.0 0.00 0.00 0.00 100 1018.2
20260504031932 17 115 0.0 0.0 0.00 0.00 0.00 100 1018.3
20260504031431 17 115 0.0 0.0 0.00 0.00 0.00 100 1018.3
20260504030932 17 115 0.0 0.0 0.00 0.00 0.00 100 1018.3
20260504030433 17 115 0.0 0.0 0.00 0.00 0.00 100 1018.2
20260504025927 17 115 0.0 0.0 0.00 0.00 0.00 100 1018.0
20260504025428 17 117 0.0 0.0 0.00 0.00 0.00 100 1018.0
20260504025158 17 120 0.0 0.0 0.00 0.00 0.00 100 1018.0
20260504024428 17 113 0.0 0.0 0.00 0.00 0.00 100 1018.0
20260504023928 17 109 0.0 0.0 0.00 0.00 0.00 100 1017.9
20260504023428 17 109 0.0 3.2 0.00 0.00 0.00 100 1017.9
20260504022928 17 100 0.0 3.2 0.00 0.00 0.00 100 1017.9
20260504022428 18 109 0.0 0.0 0.00 0.00 0.00 3 1017.8
20260504021928 18 105 0.0 0.0 0.00 0.00 0.00 5 1017.8
20260504021422 18 110 0.0 0.0 0.00 0.00 0.00 8 1017.9
20260504020911 18 113 0.0 0.0 0.00 0.00 0.00 11 1017.9
20260504020359 18 109 0.0 0.0 0.00 0.00 0.00 14 1017.9
20260504020117 18 111 0.0 0.0 0.00 0.00 0.00 18 1017.8
20260504015340 18 111 0.0 0.0 0.00 0.00 0.00 22 1017.8
20260504014840 19 111 0.0 0.0 0.00 0.00 0.00 26 1017.9
20260504014340 19 111 0.0 0.0 0.00 0.00 0.00 32 1017.7
20260504013841 19 111 0.0 0.0 0.00 0.00 0.00 37 1017.9
20260504013340 19 120 0.0 3.2 0.00 0.00 0.00 42 1017.8
20260504012839 20 115 1.6 3.2 0.00 0.00 0.00 43 1017.7
20260504012610 20 128 1.6 3.2 0.00 0.00 0.00 46 1017.8
20260504011840 20 105 1.6 6.4 0.00 0.00 0.00 48 1017.8
20260504011340 20 115 4.8 8.0 0.00 0.00 0.00 50 1017.8
20260504010327 20 124 4.8 8.0 0.00 0.00 0.00 54 1017.9
20260504005816 21 128 6.4 12.9 0.00 0.00 0.00 55 1017.9
20260504005314 21 120 8.0 12.9 0.00 0.00 0.00 56 1017.9
20260504004808 21 129 9.7 14.5 0.00 0.00 0.00 57 1017.9
20260504004302 21 132 9.7 16.1 0.00 0.00 0.00 57 1017.9
20260504003752 21 134 11.3 17.7 0.00 0.00 0.00 57 1017.9
20260504002238 22 157 9.7 16.1 0.00 0.00 0.00 56 1017.9
20260504002003 22 131 8.0 19.3 0.00 0.00 0.00 56 1017.8
20260504001227 22 140 11.3 19.3 0.00 0.00 0.00 56 1017.7
20260504000721 22 129 11.3 17.7 0.00 0.00 0.00 54 1017.9
20260503235202 22 119 14.5 24.1 0.00 0.00 0.00 55 1018.0
20260503234929 22 152 16.1 24.1 0.00 0.00 0.00 54 1018.0
20260503234146 23 352 16.1 25.7 0.00 0.00 0.00 53 1017.9
20260503233645 23 132 11.3 25.7 0.00 0.00 0.00 54 1017.8
20260503233139 23 120 9.7 24.1 0.00 0.00 0.00 53 1017.9
20260503232633 23 149 14.5 25.7 0.00 0.00 0.00 52 1018.0
20260503232122 23 143 16.1 24.1 0.00 0.00 0.00 53 1017.9
20260503231620 23 145 16.1 27.4 0.00 0.00 0.00 53 1018.2
20260503231348 23 156 14.5 27.4 0.00 0.00 0.00 53 1018.2
20260503230833 23 140 14.5 25.7 0.00 0.00 0.00 52 1018.1
20260503225556 23 142 14.5 22.5 0.00 0.00 0.00 52 1018.2
20260503225050 23 91 16.1 24.1 0.00 0.00 0.00 51 1018.0
20260503224039 23 124 14.5 27.4 0.00 0.00 0.00 51 1018.2
20260503223532 23 134 16.1 27.4 0.00 0.00 0.00 51 1018.3
20260503223028 24 118 16.1 27.4 0.00 0.00 0.00 50 1018.4
20260503222520 24 134 14.5 27.4 0.00 0.00 0.00 51 1018.3
20260503222014 24 142 12.9 27.4 0.00 0.00 0.00 51 1018.3
20260503221508 24 128 12.9 25.7 0.00 0.00 0.00 51 1018.4
20260503220957 24 352 14.5 24.1 0.00 0.00 0.00 51 1018.5
20260503220451 24 122 16.1 25.7 0.00 0.00 0.00 51 1018.5
20260503215950 24 115 14.5 25.7 0.00 0.00 0.00 51 1018.7
20260503215444 24 133 14.5 24.1 0.00 0.00 0.00 52 1018.7
20260503214934 24 121 14.5 24.1 0.00 0.00 0.00 51 1018.7
20260503214433 24 352 16.1 24.1 0.00 0.00 0.00 51 1018.9
20260503213415 24 142 16.1 30.6 0.00 0.00 0.00 53 1018.9
20260503212915 24 145 16.1 30.6 0.00 0.00 0.00 53 1018.9
20260503212408 25 161 16.1 29.0 0.00 0.00 0.00 53 1019.0
20260503211903 25 184 16.1 29.0 0.00 0.00 0.00 53 1019.3
20260503211623 25 352 17.7 30.6 0.00 0.00 0.00 53 1019.2
20260503210850 25 156 17.7 30.6 0.00 0.00 0.00 53 1019.2
20260503210615 25 176 17.7 27.4 0.00 0.00 0.00 53 1019.4
20260503205834 25 180 17.7 30.6 0.00 0.00 0.00 53 1019.4
20260503205327 25 167 16.1 30.6 0.00 0.00 0.00 53 1019.4
20260503204827 25 144 14.5 30.6 0.00 0.00 0.00 53 1019.4
20260503204320 25 162 14.5 24.1 0.00 0.00 0.00 53 1019.7
20260503203814 25 175 16.1 24.1 0.00 0.00 0.00 53 1019.7
20260503203308 25 142 16.1 30.6 0.00 0.00 0.00 52 1019.7
20260503202802 25 123 14.5 30.6 0.00 0.00 0.00 50 1019.8
20260503202256 25 352 11.3 22.5 0.00 0.00 0.00 51 1019.7
20260503201744 25 117 12.9 25.7 0.00 0.00 0.00 51 1019.7
20260503201244 25 126 12.9 25.7 0.00 0.00 0.00 49 1019.9
20260503200738 25 147 11.3 24.1 0.00 0.00 0.00 50 1020.0
20260503200232 25 131 12.9 24.1 0.00 0.00 0.00 47 1019.9
20260503195722 25 136 12.9 24.1 0.00 0.00 0.00 49 1020.2
20260503195451 25 118 9.7 19.3 0.00 0.00 0.00 46 1020.2
20260503194715 25 93 11.3 24.1 0.00 0.00 0.00 47 1020.2
20260503194203 26 352 12.9 24.1 0.00 0.00 0.00 47 1020.3
20260503193933 25 352 9.7 19.3 0.00 0.00 0.00 48 1020.4
20260503192650 25 152 3.2 20.9 0.00 0.00 0.00 46 1020.4
20260503192139 25 148 8.0 20.9 0.00 0.00 0.00 47 1020.4
20260503191638 25 101 8.0 20.9 0.00 0.00 0.00 45 1020.5
20260503191132 25 130 4.8 20.9 0.00 0.00 0.00 44 1020.6
20260503190626 25 146 4.8 20.9 0.00 0.00 0.00 46 1020.7
20260503190116 25 106 3.2 17.7 0.00 0.00 0.00 44 1020.8
20260503185845 25 114 4.8 17.7 0.00 0.00 0.00 44 1020.8
20260503185108 25 36 8.0 17.7 0.00 0.00 0.00 44 1020.8
20260503184834 25 123 8.0 20.9 0.00 0.00 0.00 45 1020.9
20260503184057 25 142 8.0 20.9 0.00 0.00 0.00 43 1021.0
20260503183550 25 145 4.8 17.7 0.00 0.00 0.00 41 1021.1
20260503183041 25 63 1.6 12.9 0.00 0.00 0.00 40 1021.1
20260503182804 25 177 3.2 12.9 0.00 0.00 0.00 40 1021.3
20260503182033 25 21 1.6 12.9 0.00 0.00 0.00 39 1021.4
20260503181757 25 104 4.8 16.1 0.00 0.00 0.00 39 1021.4
20260503181020 25 111 6.4 16.1 0.00 0.00 0.00 38 1021.6
20260503180513 25 105 4.8 16.1 0.00 0.00 0.00 40 1021.6
20260503180013 25 107 6.4 17.7 0.00 0.00 0.00 40 1021.6
20260503175513 25 122 6.4 17.7 0.00 0.00 0.00 40 1021.6
20260503175014 25 142 6.4 16.1 0.00 0.00 0.00 39 1021.8
20260503174512 25 137 6.4 16.1 0.00 0.00 0.00 40 1021.9
20260503174011 25 126 4.8 16.1 0.00 0.00 0.00 41 1022.0
20260503173511 25 100 6.4 16.1 0.00 0.00 0.00 41 1022.1
20260503173009 25 352 4.8 16.1 0.00 0.00 0.00 41 1022.3
20260503172510 25 70 3.2 19.3 0.00 0.00 0.00 41 1022.3
20260503172009 25 95 4.8 19.3 0.00 0.00 0.00 41 1022.4
20260503171509 25 124 4.8 17.7 0.00 0.00 0.00 44 1022.4
20260503171240 24 129 6.4 17.7 0.00 0.00 0.00 42 1022.5
20260503170507 24 97 9.7 17.7 0.00 0.00 0.00 41 1022.6
20260503160154 23 129 3.2 12.9 0.00 0.00 0.00 49 1022.8
20260503150628 22 41 0.0 6.4 0.00 0.00 0.00 56 1022.6
20260503150128 22 72 0.0 6.4 0.00 0.00 0.00 55 1022.5
20260503131043 17 1 0.0 3.2 0.00 0.00 0.00 100 1022.1
20260503130533 16 343 0.0 3.2 0.00 0.00 0.00 100 1022.0